sat.trackr.live / text

‹ back to catalog

STARLINK-2692

NORAD 48434 · 2021-040G

PAYLOAD ACTIVE UNKNOWN

§ Identity

Operator
Country
US
Launch date
2021-05-09
Launch site
AFETR
Launch vehicle
Mass (kg)
RCS (m²)

Purposes: comms

External: N2YO · Heavens-Above · Gunter

§ Orbital elements

Epoch: 2026-09-08T23:21:11.940768Z

Period
94.01 min
Inclination
53.1593°
Eccentricity
0.0001123
Mean motion
15.31706497 rev/d
Perigee alt
470.0 km
Apogee alt
471.5 km
Semi-major
6,848.9 km
B*
1.4823e-4
RAAN
19.8265°
Arg perigee
126.3614°
Mean anomaly
233.7491°
Rev number
29,512

§ Raw data

STARLINK-26921 48434U 21040G   26251.97305487  .00004238  00000+0  14823-3 0  99962 48434  53.1593  19.8265 0001123 126.3614 233.7491 15.31706497295123

JSON: /api/v1/satellites/48434 · /tle

For live sub-satellite position, see the globe view (requires WebGL).

§ Visibility from observer

Set your observer location to see the next 7 days of passes ≥ 10°. The values pass through the URL so the page stays shareable.

No JS? Fill the form by hand. The geolocation button needs JavaScript.